Tiempo cada hora Abakumovo

Hoy, 20 Octubre, Martes

Tiempo Temperatura Precipitaciones Viento Presión Humedad
00:00 -1°C° 0.1 mm 4 mps 735 mmHg 92%
01:00 -1°C° 0.1 mm 4 mps 735 mmHg 92%
02:00 -2°C° 0 mm 4 mps 736 mmHg 90%
03:00 -1°C° 0 mm 3 mps 736 mmHg 89%
04:00 0°C° 0 mm 3 mps 736 mmHg 87%
05:00 0°C° 0 mm 3 mps 736 mmHg 85%
06:00 0°C° 0.1 mm 3 mps 737 mmHg 88%
07:00 0°C° 0.1 mm 3 mps 737 mmHg 90%
08:00 0°C° 0 mm 3 mps 738 mmHg 93%
09:00 0°C° 0.1 mm 3 mps 738 mmHg 90%
10:00 +1°C° 0.1 mm 3 mps 739 mmHg 88%
11:00 +1°C° 0.1 mm 3 mps 739 mmHg 85%
12:00 0°C° 0.1 mm 4 mps 740 mmHg 85%
13:00 0°C° 0.1 mm 4 mps 741 mmHg 84%
14:00 0°C° 0.1 mm 4 mps 742 mmHg 83%
15:00 0°C° 0 mm 4 mps 742 mmHg 82%
16:00 0°C° 0 mm 3 mps 743 mmHg 82%
17:00 0°C° 0 mm 3 mps 743 mmHg 81%
18:00 -1°C° 0 mm 3 mps 744 mmHg 83%
19:00 -1°C° 0 mm 3 mps 744 mmHg 85%
20:00 -2°C° 0 mm 3 mps 745 mmHg 86%
21:00 -2°C° 0 mm 3 mps 745 mmHg 88%
22:00 -2°C° 0 mm 3 mps 745 mmHg 89%
23:00 -2°C° 0 mm 3 mps 746 mmHg 91%

Mañana, 21 Octubre, Miércoles

Tiempo Temperatura Precipitaciones Viento Presión Humedad
00:00 -2°C° 0 mm 3 mps 746 mmHg 91%
01:00 -2°C° 0 mm 3 mps 746 mmHg 91%
02:00 -2°C° 0 mm 3 mps 747 mmHg 91%
03:00 -2°C° 0 mm 2 mps 747 mmHg 91%
04:00 -3°C° 0 mm 2 mps 746 mmHg 91%
05:00 -3°C° 0 mm 2 mps 746 mmHg 91%
06:00 -2°C° 0 mm 2 mps 746 mmHg 90%
07:00 -2°C° 0 mm 2 mps 747 mmHg 88%
08:00 -2°C° 0 mm 2 mps 747 mmHg 86%
09:00 -1°C° 0 mm 2 mps 747 mmHg 82%
10:00 +2°C° 0 mm 1 mps 746 mmHg 78%
11:00 +3°C° 0 mm 1 mps 746 mmHg 73%
12:00 +3°C° 0 mm 1 mps 746 mmHg 73%
13:00 +3°C° 0 mm 1 mps 746 mmHg 72%
14:00 +3°C° 0 mm 1 mps 746 mmHg 72%
15:00 +2°C° 0 mm 1 mps 746 mmHg 77%
16:00 +2°C° 0 mm 1 mps 746 mmHg 81%
17:00 0°C° 0 mm 0 mps 746 mmHg 86%
18:00 +1°C° 0 mm 1 mps 746 mmHg 88%
19:00 0°C° 0 mm 1 mps 746 mmHg 89%
20:00 0°C° 0 mm 1 mps 746 mmHg 91%
21:00 0°C° 0 mm 1 mps 746 mmHg 92%
22:00 0°C° 0 mm 1 mps 746 mmHg 93%
23:00 0°C° 0 mm 1 mps 745 mmHg 94%

Pasado mañana, 22 Octubre, Jueves

Tiempo Temperatura Precipitaciones Viento Presión Humedad
00:00 0°C° 0 mm 1 mps 745 mmHg 95%
01:00 +1°C° 0 mm 1 mps 745 mmHg 95%
02:00 +1°C° 0 mm 1 mps 746 mmHg 96%
03:00 +2°C° 0 mm 1 mps 745 mmHg 96%
04:00 +1°C° 0 mm 2 mps 745 mmHg 96%
05:00 +1°C° 0 mm 2 mps 744 mmHg 96%
06:00 +2°C° 0 mm 2 mps 744 mmHg 95%
07:00 +2°C° 0 mm 2 mps 744 mmHg 95%
08:00 +1°C° 0 mm 3 mps 744 mmHg 94%
09:00 +2°C° 0 mm 3 mps 744 mmHg 92%
10:00 +2°C° 0 mm 3 mps 743 mmHg 91%
11:00 +3°C° 0 mm 3 mps 743 mmHg 89%
12:00 +3°C° 0 mm 3 mps 743 mmHg 89%
13:00 +3°C° 0 mm 3 mps 742 mmHg 90%
14:00 +3°C° 0 mm 3 mps 742 mmHg 90%
15:00 +3°C° 0.1 mm 4 mps 741 mmHg 91%
16:00 +3°C° 0.1 mm 4 mps 740 mmHg 93%
17:00 +3°C° 0.1 mm 4 mps 740 mmHg 94%
18:00 +3°C° 0.6 mm 4 mps 739 mmHg 95%
19:00 +3°C° 0.6 mm 4 mps 739 mmHg 95%
20:00 +3°C° 0.6 mm 4 mps 738 mmHg 95%
21:00 +4°C° 1.1 mm 4 mps 738 mmHg 95%
22:00 +4°C° 1.1 mm 4 mps 737 mmHg 96%
23:00 +4°C° 1.1 mm 4 mps 736 mmHg 96%

23 Octubre, Viernes

Tiempo Temperatura Precipitaciones Viento Presión Humedad
00:00 +5°C° 1.2 mm 4 mps 736 mmHg 96%
01:00 +7°C° 1.2 mm 3 mps 736 mmHg 96%
02:00 +7°C° 1.2 mm 3 mps 736 mmHg 96%
03:00 +8°C° 0.1 mm 3 mps 736 mmHg 96%
04:00 +9°C° 0.1 mm 3 mps 735 mmHg 95%
05:00 +8°C° 0.1 mm 4 mps 735 mmHg 94%
06:00 +10°C° 0 mm 4 mps 735 mmHg 93%
07:00 +10°C° 0 mm 4 mps 735 mmHg 92%
08:00 +10°C° 0 mm 4 mps 735 mmHg 91%
09:00 +10°C° 0 mm 4 mps 735 mmHg 89%
10:00 +10°C° 0 mm 3 mps 734 mmHg 88%
11:00 +10°C° 0 mm 3 mps 734 mmHg 87%
12:00 +10°C° 0.8 mm 3 mps 734 mmHg 89%
13:00 +10°C° 0.8 mm 3 mps 733 mmHg 92%
14:00 +10°C° 0.8 mm 3 mps 732 mmHg 94%
15:00 +10°C° 0.6 mm 3 mps 732 mmHg 95%
16:00 +10°C° 0.6 mm 3 mps 732 mmHg 95%
17:00 +10°C° 0.6 mm 3 mps 731 mmHg 95%
18:00 +10°C° 0.5 mm 3 mps 731 mmHg 94%
19:00 +10°C° 0.5 mm 3 mps 731 mmHg 93%
20:00 +10°C° 0.5 mm 3 mps 731 mmHg 92%
21:00 +9°C° 0.2 mm 3 mps 731 mmHg 92%
22:00 +9°C° 0.2 mm 3 mps 731 mmHg 92%
23:00 +7°C° 0.2 mm 4 mps 731 mmHg 92%

24 Octubre, Sábado

Tiempo Temperatura Precipitaciones Viento Presión Humedad
00:00 +7°C° 0.1 mm 4 mps 731 mmHg 91%
01:00 +7°C° 0.1 mm 4 mps 732 mmHg 90%
02:00 +8°C° 0.1 mm 4 mps 732 mmHg 89%
03:00 +7°C° 0.1 mm 4 mps 732 mmHg 88%
04:00 +7°C° 0.1 mm 4 mps 733 mmHg 86%
05:00 +7°C° 0.1 mm 5 mps 734 mmHg 84%
06:00 +6°C° 0 mm 4 mps 734 mmHg 83%
07:00 +6°C° 0 mm 4 mps 735 mmHg 81%
08:00 +5°C° 0 mm 4 mps 735 mmHg 80%
09:00 +5°C° 0 mm 4 mps 736 mmHg 77%
10:00 +5°C° 0 mm 4 mps 737 mmHg 75%
11:00 +5°C° 0 mm 4 mps 737 mmHg 72%
12:00 +5°C° 0 mm 3 mps 738 mmHg 72%
13:00 +5°C° 0 mm 3 mps 738 mmHg 72%
14:00 +4°C° 0 mm 3 mps 738 mmHg 71%
15:00 +5°C° 0 mm 2 mps 738 mmHg 75%
16:00 +4°C° 0 mm 2 mps 738 mmHg 79%
17:00 +4°C° 0 mm 1 mps 738 mmHg 83%
18:00 +4°C° 0 mm 1 mps 739 mmHg 85%
19:00 +3°C° 0 mm 1 mps 739 mmHg 88%
20:00 +1°C° 0 mm 0 mps 739 mmHg 90%
21:00 +1°C° 0 mm 0 mps 739 mmHg 91%
22:00 +1°C° 0 mm 0 mps 739 mmHg 92%
23:00 0°C° 0 mm 0 mps 739 mmHg 92%

25 Octubre, Domingo

Tiempo Temperatura Precipitaciones Viento Presión Humedad
00:00 0°C° 0 mm 0 mps 739 mmHg 93%
01:00 0°C° 0 mm 0 mps 739 mmHg 93%
02:00 0°C° 0 mm 0 mps 740 mmHg 94%
03:00 0°C° 0 mm 0 mps 740 mmHg 94%
04:00 0°C° 0 mm 0 mps 740 mmHg 93%
05:00 0°C° 0 mm 0 mps 740 mmHg 93%
06:00 0°C° 0 mm 0 mps 740 mmHg 92%
07:00 0°C° 0 mm 0 mps 740 mmHg 90%
08:00 +1°C° 0 mm 1 mps 740 mmHg 88%
09:00 +2°C° 0 mm 1 mps 741 mmHg 84%
10:00 +3°C° 0 mm 1 mps 741 mmHg 80%
11:00 +4°C° 0 mm 1 mps 742 mmHg 76%
12:00 +4°C° 0 mm 1 mps 742 mmHg 76%
13:00 +4°C° 0 mm 1 mps 742 mmHg 76%
14:00 +4°C° 0 mm 1 mps 742 mmHg 76%
15:00 +3°C° 0 mm 1 mps 742 mmHg 81%
16:00 +2°C° 0 mm 1 mps 743 mmHg 86%
17:00 +1°C° 0 mm 1 mps 743 mmHg 91%
18:00 +1°C° 0 mm 1 mps 743 mmHg 92%
19:00 +1°C° 0 mm 1 mps 743 mmHg 93%
20:00 +1°C° 0 mm 1 mps 744 mmHg 94%
21:00 +1°C° 0 mm 1 mps 744 mmHg 93%
22:00 +1°C° 0 mm 1 mps 744 mmHg 92%
23:00 -1°C° 0 mm 2 mps 745 mmHg 91%

26 Octubre, Lunes

Tiempo Temperatura Precipitaciones Viento Presión Humedad
00:00 -2°C° 0 mm 2 mps 745 mmHg 93%
01:00 -2°C° 0 mm 2 mps 745 mmHg 94%
02:00 -2°C° 0 mm 2 mps 745 mmHg 95%
03:00 -2°C° 0 mm 2 mps 745 mmHg 95%
04:00 -2°C° 0 mm 2 mps 746 mmHg 96%
05:00 -2°C° 0 mm 2 mps 746 mmHg 96%
06:00 -1°C° 0 mm 2 mps 746 mmHg 95%
07:00 -1°C° 0 mm 2 mps 746 mmHg 94%
08:00 -1°C° 0 mm 2 mps 747 mmHg 92%
09:00 +1°C° 0 mm 2 mps 747 mmHg 88%
10:00 +2°C° 0 mm 2 mps 747 mmHg 84%
11:00 +3°C° 0 mm 2 mps 747 mmHg 80%
12:00 +4°C° 0 mm 2 mps 747 mmHg 78%
13:00 +4°C° 0 mm 2 mps 747 mmHg 76%
14:00 +4°C° 0 mm 2 mps 747 mmHg 75%
15:00 +4°C° 0 mm 2 mps 747 mmHg 81%
16:00 +3°C° 0 mm 2 mps 747 mmHg 87%
17:00 +2°C° 0 mm 2 mps 747 mmHg 93%
18:00 +2°C° 0 mm 2 mps 747 mmHg 93%
19:00 +2°C° 0 mm 2 mps 747 mmHg 93%
20:00 +2°C° 0 mm 2 mps 748 mmHg 93%
21:00 +2°C° 0 mm 2 mps 748 mmHg 94%
22:00 +1°C° 0 mm 2 mps 748 mmHg 95%
23:00 +1°C° 0 mm 2 mps 748 mmHg 95%
Mostrar más

Necesitamos Su Consentimiento

Meteoprog y nuestros Proveedores de Servicios pueden almacenar y acceder a sus datos personales como cookies, identificadores de dispositivo u otras tecnologías similares de su dispositivo y procesar dichos datos para personalizar contenido y anuncios, además de ofrecer funciones de redes sociales y analizar el tráfico.

  • Almacenar y/o acceder a información en su dispositivo

    Se puede almacenar o acceder a cookies, identificadores de dispositivo u otra información de su dispositivo para los fines anteriormente indicados.

  • Anuncios y contenido personalizados, medición de anuncios y contenido, percepciones del público, y desarrollo de productos

    Los anuncios y el contenido pueden personalizarse en base a su perfil. Se pueden añadir más datos para personalizar mejor los anuncios y contenidos. Se puede medir el rendimiento de los anuncios y contenidos. Se puede obtener la percepción sobre el público que ha visto los anuncios y contenidos. Dichos datos pueden usarse para desarrollar o mejorar la experiencia del usuario, sistemas y software.

Al hacer clic en ‘Estoy De Acuerdo’ usted permitirá el uso de las cookies, identificadores de dispositivo, balizas web u otras tecnologías similares indicadas. Su configuración puede cambiarse desde el navegador de su dispositivo.

Para ciertos fines, los intereses legítimos pueden ser considerados por encima del consentimiento. Puede leer más sobre ello en nuestra Política de Privacidad y Cookies.